Hourly Weather Roundup
Issued by NWS Central Illinois

Home | Current Version | Previous Version | Text Only | Print | Product List | Glossary On
Versions: 1 2 3 4 5 6 7 8 9 10 11 12 13 14 15 16 17 18 19 20 21 22 23 24 25 26 27 28 29 30 31 32 33 34 35 36 37 38 39 40 41 42 43 44 45 46 47 48 49 50
000
NZUS43 KILX 231610
HWRILX

AREA WEATHER ROUNDUP
NATIONAL WEATHER SERVICE, LINCOLN IL
1100 AM CDT THU OCT 23 2014


CITY           SKY/WX    TMP DP  RH WIND       PRES   REMARKS
BLOOMINGTON    CLOUDY    52  45  77 S10       30.23R
CHAMPAIGN      PTSUNNY   54  44  69 S13       30.22F
DECATUR        CLOUDY    55  44  66 S7        30.23F
FLORA          SUNNY     53  43  69 S6        30.26S
GALESBURG      PTSUNNY   55  43  64 S12G20    30.16S
JACKSONVILLE   CLOUDY    53  44  70 S9        30.20S
LACON          PTSUNNY   53  42  64 S9        30.18F
LAWRENCEVILLE  SUNNY     55  44  66 S7        30.26S
LITCHFIELD     CLOUDY    53  42  67 S12       30.21F
$$


CITY           SKY/WX    TMP DP  RH WIND       PRES   REMARKS
LINCOLN        CLOUDY    54  43  68 S8        30.20F
MACOMB         CLOUDY    52  44  72 S9        30.19R
MATTOON        PTSUNNY   52  43  71 S10       30.23S
MT CARMEL AP   SUNNY     55  45  67 S7        30.25F
OLNEY-NOBLE AP MOSUNNY   54  43  66 S8        30.25F
PARIS          SUNNY     54  45  71 SW8       30.25S
PEORIA         CLOUDY    53  42  66 S12       30.19F
PONTIAC        PTSUNNY   55  45  69 S9        30.22F
RANTOUL        PTSUNNY   56  43  61 SW9       30.22F
ROBINSON       MOSUNNY   57  46  65 SW7       30.27S
SPRINGFIELD    CLOUDY    53  42  66 S9        30.22S
TAYLORVILLE    CLOUDY    52  45  76 S7        30.21F
$$

...REGIONAL REPORTS...


CITY           SKY/WX    TMP DP  RH WIND       PRES   REMARKS
CHICAGO O`HARE PTSUNNY   53  41  63 S10       30.20F
KANKAKEE       MOSUNNY   53  44  72 S7        30.23S
MOLINE         CLOUDY    56  44  64 SE9       30.11F
MOUNT VERNON   MOSUNNY   55  45  67 S7        30.26R
PITTSFIELD     CLOUDY    55  45  69 S8        30.18F
QUINCY         CLOUDY    53  43  68 S9        30.15S
ROCKFORD       CLOUDY    53  41  63 S15       30.20F
$$


CITY           SKY/WX    TMP DP  RH WIND       PRES   REMARKS
BURLINGTON     CLOUDY    54  45  71 S16       30.12S
CEDAR RAPIDS   CLOUDY    49  45  86 S10       30.07F
DES MOINES     CLOUDY    59  56  89 SW8       30.05S
KIRKSVILLE     PTSUNNY   58  51  78 S9        30.13S
OTTUMWA        CLOUDY    57  48  72 S10       30.08R
ST LOUIS       PTSUNNY   60  42  51 S12       30.21F
$$


CITY           SKY/WX    TMP DP  RH WIND       PRES   REMARKS
TERRE HAUTE    SUNNY     54  44  69 S10       30.25F
EVANSVILLE     SUNNY     55  42  61 S6        30.26S
INDIANAPOLIS   MOSUNNY   51  41  68 CALM      30.24F
LAFAYETTE      SUNNY     53  43  68 S8        30.23F
MADISON        CLOUDY    50  40  68 S12       30.12F
MILWAUKEE      PTSUNNY   54  42  64 S8        30.17F
$$





USA.gov is the U.S. government's official web portal to all federal, state and local government web resources and services.